Temp
7 7 7 7 7 7 7 7 8 10 11 10 9 8 7 6 6 5 6 5 5 5 4 4 4 4 4 4 5 5 5 6 6 6 7 7 7 8
7 7 6 6 6 5 5 6 6 7 9 9 8 7 5 5 5 4 5 4 4 4 3 3 3 3 3 3 4 4 4 4 5 5 6 6 7 7
6 6 5 5 5 5 5 5 5 5 6 7 6 6 5 5 4 4 4 4 4 4 2 2 2 2 2 3 2 3 3 3 3 4 4 5 6 6
5 5 4 4 4 4 4 4 4 4 4 5 5 4 4 4 4 3 4 4 4 3 2 2 2 2 2 2 2 2 2 2 2 3 3 4 4 5
4 4 3 3 4 3 3 4 3 3 3 3 3 3 3 3 3 2 3 3 3 2 2 2 2 2 1 1 1 2 2 2 2 2 2 3 3 4
2 2 2 2 2 3 3 3 3 3 3 3 3 3 2 2 2 2 2 2 2 2 2 2 2 2 2 2 2 1 1 1 1 1 2 2 2 3
2 1 1 1 1 1 1 2 2 2 2 2 3 2 2 2 2 1 1 2 2 2 1 2 2 1 1 1 1 1 1 0 0 1 1 1 2 2
1 1 0 0 0 0 0 0 -0 1 1 2 2 2 2 2 1 1 1 1 1 1 1 1 1 1 1 1 1 0 -0 -0 -0 0 1 1 1 1
0 0 0 0 -1 -1 -0 -0 -0 -0 -0 0 1 1 1 1 1 1 1 0 1 0 0 0 1 1 1 1 1 -0 -0 -0 -0 0 0 0 0 0
-1 -1 -1 -1 -1 -1 -0 0 0 0 -0 -0 0 0 0 0 -0 -0 -0 -0 -0 0 0 -0 -0 -0 0 0 -0 -0 -0 -0 -0 -0 -0 -1 -0 -0
-1 -1 -1 -1 -1 -1 -1 -0 0 0 0 -1 -1 -1 -1 -1 -2 -2 -1 -1 -0 -0 -1 -1 -1 -1 -1 -1 -0 -0 -1 -1 -1 -0 -0 -1 -1 -1
-1 -1 -2 -2 -2 -2 -1 -0 -0 0 -0 -0 -0 -1 -1 -1 -2 -2 -2 -2 -2 -2 -2 -2 -2 -2 -2 -2 -1 -2 -1 -1 -1 -1 -1 -1 -1 -1
-1 -1 -1 -2 -2 -2 -1 -1 -1 -1 -1 -1 -1 -1 -2 -2 -2 -2 -2 -3 -3 -3 -3 -3 -3 -3 -3 -2 -2 -2 -2 -1 -1 -1 -1 -1 -1 -1
-1 -1 -2 -2 -2 -2 -2 -2 -2 -2 -2 -2 -2 -2 -2 -2 -3 -3 -3 -4 -4 -4 -4 -4 -4 -4 -4 -3 -3 -2 -2 -2 -2 -2 -2 -2 -2 -2
-2 -2 -2 -2 -2 -2 -2 -3 -3 -2 -3 -3 -3 -3 -3 -3 -4 -5 -4 -4 -5 -5 -5 -5 -5 -5 -5 -4 -4 -3 -3 -3 -3 -2 -3 -2 -2 -2
-2 -2 -2 -3 -3 -3 -3 -3 -3 -3 -3 -3 -3 -4 -4 -5 -4 -4 -5 -5 -5 -5 -4 -4 -5 -5 -5 -5 -4 -4 -4 -3 -3 -4 -3 -3 -2 -3
-2 -2 -3 -2 -2 -3 -3 -3 -4 -4 -5 -5 -6 -6 -6 -6 -6 -6 -6 -6 -5 -5 -5 -5 -6 -5 -5 -5 -5 -4 -4 -3 -3 -3 -3 -3 -2 -2
-3 -3 -3 -3 -3 -3 -4 -5 -5 -5 -5 -5 -5 -5 -6 -6 -6 -6 -6 -6 -6 -5 -5 -5 -5 -5 -5 -4 -4 -3 -4 -4 -3 -4 -4 -3 -2 -3
-3 -3 -4 -4 -4 -5 -5 -5 -6 -6 -6 -6 -6 -6 -6 -6 -6 -6 -6 -6 -6 -6 -6 -6 -5 -5 -5 -4 -4 -4 -4 -5 -4 -4 -3 -3 -3 -3
-4 -5 -5 -5 -5 -6 -6 -6 -6 -6 -6 -6 -6 -6 -6 -6 -6 -6 -6 -6 -6 -6 -6 -5 -5 -5 -5 -5 -5 -5 -4 -5 -4 -4 -3 -4 -3 -3
-5 -6 -6 -6 -6 -6 -7 -7 -7 -7 -6 -6 -7 -6 -6 -6 -6 -6 -6 -5 -5 -6 -6 -5 -5 -6 -6 -6 -6 -5 -4 -4 -4 -4 -4 -4 -3 -3
-6 -6 -6 -6 -7 -7 -7 -7 -7 -7 -7 -7 -7 -7 -7 -7 -6 -6 -6 -6 -6 -6 -6 -6 -6 -6 -6 -6 -5 -5 -4 -4 -5 -4 -4 -5 -4 -3
-7 -7 -7 -7 -7 -7 -7 -7 -7 -7 -7 -7 -7 -7 -7 -7 -6 -6 -6 -6 -6 -6 -6 -5 -6 -6 -6 -6 -5 -5 -4 -4 -4 -4 -4 -4 -4 -4
Height
848 849 851 851 851 851 852 853 852 848 845 845 847 846 845 844 841 838 837 834 830 828 825 823 819 817 813 810 807 803 800 797 794 791 787 784 782 779
848 850 851 851 850 851 851 852 852 852 848 845 845 845 844 842 840 837 834 830 828 825 823 820 816 813 810 807 803 800 796 792 789 786 783 780 777 774
848 850 851 850 850 851 851 851 851 851 849 845 844 843 841 839 837 834 831 829 826 823 820 817 814 810 807 804 800 797 793 789 785 781 778 775 772 770
848 849 850 850 850 850 850 850 850 849 849 845 844 842 840 837 834 831 828 826 823 820 817 814 811 808 804 801 797 793 789 785 780 776 773 770 767 765
847 849 849 849 849 849 849 849 848 848 846 845 842 840 838 835 831 828 826 823 820 817 814 811 808 804 801 797 793 789 785 781 777 772 768 765 762 759
846 847 847 848 848 848 847 847 846 846 844 842 839 838 835 833 830 827 823 821 817 815 811 808 804 801 797 793 789 785 781 777 773 769 764 760 756 753
845 846 846 845 845 845 846 845 844 843 841 839 836 834 832 830 828 826 822 818 815 812 809 804 800 796 792 788 784 780 777 772 768 764 759 755 751 748
844 844 844 844 844 843 843 842 841 840 838 836 833 831 829 828 825 823 820 816 811 810 805 801 798 791 787 783 779 775 771 767 762 758 755 751 746 742
842 842 843 843 841 841 840 839 838 837 836 835 832 830 827 825 822 819 816 813 808 806 804 796 794 788 784 779 774 770 766 762 758 754 750 746 741 736
840 840 840 840 840 839 837 836 835 834 832 831 829 827 825 822 820 817 814 809 804 801 800 793 789 784 779 774 771 766 761 757 753 749 745 740 735 730
838 838 838 838 837 836 835 834 832 830 829 827 825 822 820 818 816 813 810 806 800 797 796 791 784 780 775 768 764 761 756 752 747 743 739 734 728 723
836 837 836 835 834 834 833 831 829 827 825 822 821 818 816 814 811 809 806 803 799 793 793 789 783 779 770 765 760 756 750 746 741 736 732 727 722 717
834 834 834 834 833 832 830 828 826 824 821 819 817 814 812 810 808 806 804 801 796 791 788 786 780 775 771 760 755 752 748 741 736 730 725 720 715 711
833 833 832 831 830 828 826 824 822 820 817 815 813 811 808 806 804 802 799 795 793 788 784 781 776 772 766 758 751 746 742 737 732 725 720 714 708 703
831 830 829 827 825 823 822 820 817 815 813 812 809 807 805 803 800 796 793 790 786 782 779 775 772 767 763 757 749 743 738 732 727 722 716 709 703 695
828 826 825 823 821 820 817 815 814 812 810 808 806 803 801 799 796 793 789 785 781 776 774 770 766 763 757 753 748 740 736 730 723 719 712 705 696 689
824 822 821 820 818 816 814 813 811 809 807 805 803 800 798 795 792 789 785 781 777 771 766 764 760 757 753 749 743 737 731 726 721 716 710 701 691 684
821 820 818 817 815 814 813 811 809 807 805 802 800 797 794 791 788 784 781 777 773 768 763 758 755 750 746 741 738 733 728 723 718 713 708 701 692 686
818 817 816 814 813 812 811 809 806 804 802 799 796 793 790 787 783 780 777 773 768 765 760 755 752 749 742 735 732 731 726 721 715 710 707 703 697 691
816 815 813 812 811 810 808 805 803 801 798 795 792 788 785 782 779 775 772 768 764 760 755 751 748 745 741 735 729 723 721 717 713 709 705 703 700 695
813 813 811 810 808 806 804 802 800 797 794 791 787 784 781 778 774 771 767 763 759 755 751 747 743 741 737 733 728 721 717 715 711 708 706 703 700 697
811 810 808 807 805 803 801 798 796 793 790 787 783 780 776 773 769 766 762 758 754 751 746 741 738 735 733 730 725 721 716 712 709 706 705 704 703 700
808 807 805 803 801 799 797 795 792 789 786 782 779 776 772 768 765 761 757 753 750 745 740 736 733 731 728 726 722 718 715 712 708 706 704 702 701 700
Wind_Speed
5 4 3 2 2 1 1 2 4 4 6 2 6 4 13 14 14 16 16 17 22 20 20 20 21 23 25 26 26 27 27 26 25 24 25 25 25 24
5 4 4 3 3 2 1 1 3 7 5 7 12 13 14 14 16 17 17 20 18 17 18 19 21 22 24 24 24 24 25 26 27 26 26 26 26 26
5 4 4 3 3 2 2 2 3 5 10 14 14 15 16 17 18 17 18 17 17 17 18 21 20 21 21 21 22 24 25 25 26 26 26 26 26 27
6 4 4 3 3 3 3 4 5 5 8 13 14 16 17 18 18 20 19 18 18 18 19 20 21 21 22 22 24 24 25 25 28 27 27 26 25 26
4 3 3 3 3 4 5 5 6 7 9 12 15 14 16 18 20 19 19 20 19 20 21 22 21 22 21 25 25 25 24 26 25 26 27 27 26 25
3 2 2 2 3 5 6 7 8 10 12 13 14 15 14 16 17 19 21 20 22 23 22 21 21 22 25 26 26 25 26 26 27 27 27 28 28 28
2 1 2 3 4 4 6 8 10 11 13 14 15 15 15 16 16 18 20 21 22 22 24 23 27 27 28 28 25 23 26 28 27 28 28 27 28 29
1 1 3 4 5 8 8 9 10 12 14 14 15 16 17 18 18 19 20 19 18 19 22 27 27 29 30 28 27 29 28 28 28 28 25 26 29 31
1 3 4 5 7 7 9 10 10 11 11 13 16 18 19 19 20 21 21 22 24 25 24 24 25 26 27 29 28 30 30 30 28 25 27 31 30 31
2 4 5 6 6 8 9 11 11 11 12 12 14 16 18 19 20 21 21 24 25 25 21 22 27 26 26 28 31 30 28 28 27 28 31 31 31 31
3 4 5 7 8 10 11 12 14 14 13 13 15 16 16 17 17 18 20 20 21 23 21 22 24 26 27 28 25 27 27 32 30 28 31 31 33 32
5 5 6 7 10 10 11 13 15 15 16 16 16 16 16 16 15 14 16 18 19 18 17 21 24 22 17 26 24 29 27 30 31 29 30 32 31 30
6 8 8 9 10 11 12 13 13 17 18 16 16 15 14 14 14 13 14 15 18 20 22 22 21 24 19 25 25 26 27 30 29 31 29 32 28 29
8 9 10 11 13 13 13 13 16 16 15 15 15 16 15 16 16 16 17 17 18 22 24 21 20 21 23 25 25 27 28 28 26 28 30 30 32 32
9 11 14 14 14 13 13 16 16 13 13 14 16 16 16 17 20 18 18 19 21 20 20 20 22 24 22 23 26 26 28 29 27 22 31 31 32 33
10 12 12 13 13 13 14 12 11 11 13 16 17 17 17 17 18 18 20 20 21 20 19 21 21 22 22 22 24 26 26 22 28 26 29 33 33 25
13 12 11 12 13 13 12 11 11 11 12 13 14 16 16 17 18 19 21 22 20 21 22 22 21 21 22 25 23 24 25 24 23 25 27 31 32 21
11 10 12 13 13 12 11 12 12 14 15 16 17 16 17 18 19 20 19 18 19 20 22 21 21 21 22 21 18 21 23 24 22 26 25 21 19 20
10 11 11 11 11 11 12 13 13 14 17 17 15 18 18 17 17 18 18 18 19 19 21 21 19 17 10 10 18 13 16 26 26 23 18 16 13 18
7 9 10 10 11 12 12 13 15 15 15 16 16 16 17 17 17 18 18 19 19 20 21 20 18 16 15 12 18 30 21 21 20 18 16 12 11 11
8 8 9 11 12 13 13 14 15 16 16 17 17 17 18 18 19 19 20 21 21 19 19 19 19 18 20 17 13 19 21 19 16 13 13 11 9 8
7 9 10 11 12 12 14 14 15 15 15 15 16 17 17 17 19 20 20 20 19 20 22 23 21 17 15 14 15 19 18 15 14 9 9 7 5 4
8 10 11 12 12 13 13 15 16 17 16 17 18 17 18 19 20 21 22 20 21 22 22 21 18 15 13 14 17 17 13 15 12 11 9 8 9 11
Wind_Direction
113 110 113 94 80 60 329 290 303 308 316 327 314 311 322 325 322 327 321 311 320 317 319 320 320 320 319 316 313 312 312 312 310 309 307 307 307 307
108 108 103 84 75 61 22 290 264 273 274 305 308 310 317 318 318 323 317 320 316 316 319 320 321 323 322 320 319 315 314 313 310 307 305 302 301 302
104 100 86 67 60 37 10 333 293 280 279 290 300 310 315 317 319 319 319 314 312 313 317 319 319 322 323 321 319 317 317 316 314 310 308 304 297 296
98 92 72 46 31 7 340 322 306 294 291 296 302 309 311 315 315 317 319 316 315 315 317 317 315 314 315 316 317 317 317 315 311 310 309 307 303 293
96 76 47 17 356 342 330 316 307 300 295 296 301 304 306 313 317 318 320 319 318 317 316 314 312 310 310 312 312 312 313 318 317 313 311 307 304 300
91 68 27 352 329 320 312 306 303 302 300 297 300 306 310 315 314 318 320 320 319 318 318 316 315 313 310 308 307 305 309 312 312 312 311 308 306 302
92 47 13 330 325 314 312 305 303 300 299 299 300 306 309 319 318 316 312 314 312 319 316 316 315 311 309 310 309 307 306 306 306 309 309 307 306 304
96 22 349 334 322 310 301 295 291 295 298 299 298 298 303 311 310 310 311 309 308 314 314 308 309 307 306 307 306 308 309 308 307 306 305 307 306 304
4 327 321 314 325 318 313 307 300 294 287 289 292 295 301 303 306 306 309 308 306 310 306 298 304 301 302 303 305 307 306 305 304 304 302 307 304 305
327 320 315 314 315 320 314 308 306 303 296 292 289 293 294 298 299 302 304 301 298 300 308 302 304 302 307 305 303 304 306 306 302 301 306 304 304 300
320 315 309 308 312 320 312 304 304 302 302 297 296 298 298 297 297 302 299 302 298 303 310 299 304 312 309 302 305 307 307 305 302 302 304 302 303 303
310 303 307 313 312 308 304 303 303 305 309 308 303 301 301 303 304 300 301 298 301 299 306 306 306 311 309 303 307 307 309 308 307 303 304 304 304 303
306 308 302 302 303 300 304 299 300 305 303 301 302 304 305 305 304 301 297 293 294 290 297 302 301 301 293 304 304 306 306 307 305 304 305 306 305 302
293 295 298 302 303 303 300 299 302 301 298 297 298 299 302 303 302 299 296 294 289 287 295 297 288 294 298 299 299 307 305 306 306 306 306 308 308 307
287 293 299 300 301 299 298 300 300 293 292 293 295 296 298 297 298 303 300 298 298 292 293 292 291 296 293 294 296 302 308 309 305 304 308 308 307 303
301 303 299 301 298 296 302 304 305 301 298 295 296 297 298 298 296 298 301 303 300 296 295 296 296 294 291 293 298 301 299 295 306 309 307 310 313 302
308 306 302 301 303 308 306 305 310 310 307 304 303 303 302 302 302 303 303 300 291 299 304 303 303 301 296 293 287 289 297 299 302 308 315 312 315 307
303 295 298 305 309 309 307 306 305 303 300 298 296 295 298 300 300 301 300 298 298 298 299 303 304 301 303 302 279 292 299 300 309 311 312 315 333 357
294 297 301 304 304 298 297 297 297 300 302 296 296 298 292 296 302 301 299 297 296 297 299 300 302 298 298 300 309 299 303 303 304 301 312 327 331 351
302 300 300 301 300 297 298 300 300 301 303 300 297 300 300 298 295 292 296 295 295 292 292 297 295 291 283 295 302 303 314 297 300 298 313 328 330 339
301 299 298 296 294 296 297 297 296 298 300 302 299 300 301 300 296 295 294 298 300 299 296 295 294 298 297 295 294 296 310 316 309 285 308 319 339 354
293 295 297 295 294 293 296 297 297 300 301 300 300 298 296 297 295 294 292 293 293 292 292 295 297 297 290 282 288 298 303 317 326 306 290 284 307 326
291 293 295 295 294 296 296 298 297 297 298 298 298 297 299 296 297 297 295 292 295 294 294 295 295 291 281 282 289 292 308 317 317 315 306 298 295 287